Columbus, OH

6:30 AM EDT on August 30, 2016 (GMT -0400)
Port Columbus International

Weather History for KCMH - November, 2014

Change the Weather History Date:

Thursday, November 13, 2014

  Actual Average Record
Temperature  
Mean Temperature 30 °F 46 °F  
Max Temperature 33 °F 54 °F 74 °F (1955)
Min Temperature 26 °F 37 °F 14 °F (1911)
Degree Days  
Heating Degree Days 35 20  
Month to date heating degree days 271 226  
Since 1 July heating degree days 647 620  
Cooling Degree Days 0 0  
Month to date cooling degree days 0 0  
Year to date cooling degree days 1163 1024  
Moisture  
Dew Point 20 °F    
Average Humidity 69    
Maximum Humidity 75    
Minimum Humidity 63    
Precipitation  
Precipitation T in 0.11 in 1.33 in (1993)
Month to date precipitation 0.56 1.31  
Year to date precipitation 34.49 34.45  
Snow  
Snow T in 0.00 in 2.00 in (1886)
Month to date snowfall T 0.2  
Since 1 July snowfall T 0.4  
Since 1 September snowfall T 0.4  
Snow Depth 0.00 in    
Sea Level Pressure  
Sea Level Pressure 30.24 in    
Wind  
Wind Speed 11 mph (WNW)    
Max Wind Speed 17 mph    
Max Gust Speed 21 mph    
Visibility 9 miles    
Events Snow    
T = Trace of Precipitation, MM = Missing Value Source: NWS Daily Summary

Daily Weather History Graph

Daily Weather History Graph

Search for Another Location

Airport or City:

Trip Planner

Search our weather history database for the weather conditions in past years. The results will help you decide how hot, cold, wet, or windy it might be!

Date:

Astronomy

Nov. 13, 2014 Rise Set
Actual Time 7:14 AM EST 5:16 PM EST
Civil Twilight 6:45 AM EST 5:45 PM EST
Nautical Twilight 6:12 AM EST 6:18 PM EST
Astronomical Twilight 5:40 AM EST 6:50 PM EST
Moon 11:32 PM EST (11/13) 12:34 PM EST (11/13)
Length of Visible Light 11h 00m
Length of Day
10h 02m
Waning Gibbous, 59% of the Moon is Illuminated
Nov 13
Waning Gibbous
Nov 14
Last Quarter
Nov 22
New
Nov 29
First Quarter
Dec 6
Full

Hourly Weather History & Observations

Time (EST) Temp. Windchill Dew Point Humidity Pressure Visibility Wind Dir Wind Speed Gust Speed Precip Events Conditions
12:26 AM 33.8 °F 27.0 °F 23.0 °F 65% 30.22 in 10.0 mi NW 8.1 mph - N/A   Overcast
12:37 AM 33.8 °F 27.7 °F 23.0 °F 65% 30.22 in 10.0 mi WNW 6.9 mph - N/A   Overcast
12:51 AM 33.1 °F 26.1 °F 23.0 °F 66% 30.25 in 10.0 mi WNW 8.1 mph - N/A   Overcast
1:16 AM 32.0 °F 23.6 °F 24.8 °F 75% 30.22 in 10.0 mi WNW 10.4 mph - N/A   Overcast
1:51 AM 32.0 °F 24.8 °F 23.0 °F 69% 30.24 in 10.0 mi West 8.1 mph - N/A   Overcast
2:51 AM 30.9 °F 24.3 °F 23.0 °F 72% 30.23 in 10.0 mi WNW 6.9 mph - N/A   Overcast
3:51 AM 30.9 °F 22.8 °F 21.9 °F 69% 30.23 in 10.0 mi WNW 9.2 mph - N/A   Overcast
4:51 AM 30.0 °F 21.7 °F 21.9 °F 72% 30.23 in 10.0 mi WNW 9.2 mph - N/A   Overcast
5:51 AM 30.0 °F 22.4 °F 21.0 °F 69% 30.23 in 10.0 mi WNW 8.1 mph - N/A   Overcast
6:31 AM 30.2 °F 23.4 °F 21.2 °F 69% 30.19 in 10.0 mi WNW 6.9 mph - N/A   Overcast
6:51 AM 30.0 °F 22.4 °F 21.0 °F 69% 30.22 in 10.0 mi WNW 8.1 mph - N/A   Overcast
7:51 AM 30.0 °F 24.1 °F 21.0 °F 69% 30.24 in 8.0 mi NW 5.8 mph - N/A   Overcast
8:51 AM 30.0 °F 21.7 °F 21.9 °F 72% 30.23 in 8.0 mi West 9.2 mph - N/A   Overcast
9:51 AM 30.0 °F 20.5 °F 21.9 °F 72% 30.23 in 7.0 mi West 11.5 mph - N/A   Overcast
10:51 AM 30.9 °F 21.2 °F 21.0 °F 67% 30.23 in 9.0 mi West 12.7 mph - N/A   Overcast
11:51 AM 28.9 °F 17.3 °F 21.0 °F 72% 30.23 in 7.0 mi NW 16.1 mph - N/A   Overcast
12:51 PM 30.9 °F 20.7 °F 19.0 °F 61% 30.21 in 8.0 mi WNW 13.8 mph - N/A   Overcast
1:51 PM 28.9 °F 18.2 °F 19.9 °F 69% 30.22 in 8.0 mi WNW 13.8 mph - N/A   Overcast
2:51 PM 28.9 °F 20.4 °F 19.9 °F 69% 30.22 in 6.0 mi WNW 9.2 mph - 0.00 in Snow Light Snow
3:10 PM 30.2 °F 21.3 °F 19.4 °F 64% 30.19 in 6.0 mi WNW 10.4 mph - 0.00 in Snow Light Snow
3:51 PM 30.0 °F 21.1 °F 19.9 °F 66% 30.22 in 8.0 mi West 10.4 mph - 0.00 in   Overcast
4:51 PM 28.9 °F 19.2 °F 18.0 °F 64% 30.23 in 9.0 mi West 11.5 mph - 0.00 in   Overcast
5:51 PM 28.9 °F 20.4 °F 17.1 °F 61% 30.25 in 10.0 mi West 9.2 mph - N/A   Mostly Cloudy
6:51 PM 28.9 °F 18.2 °F 17.1 °F 61% 30.26 in 9.0 mi West 13.8 mph - N/A Snow Light Snow
7:27 PM 28.4 °F 17.5 °F 17.6 °F 64% 30.24 in 9.0 mi West 13.8 mph - 0.00 in   Overcast
7:51 PM 28.0 °F 17.5 °F 19.0 °F 69% 30.27 in 9.0 mi WNW 12.7 mph - 0.00 in   Overcast
7:58 PM 28.4 °F 17.5 °F 19.4 °F 69% 30.24 in 9.0 mi West 13.8 mph - N/A   Overcast
8:27 PM 28.4 °F 18.0 °F 19.4 °F 69% 30.24 in 10.0 mi West 12.7 mph - N/A   Overcast
8:36 PM 28.4 °F 18.5 °F 19.4 °F 69% 30.25 in 10.0 mi West 11.5 mph - N/A   Overcast
8:51 PM 28.0 °F 18.1 °F 19.0 °F 69% 30.28 in 10.0 mi West 11.5 mph - N/A   Overcast
9:51 PM 27.0 °F 16.1 °F 19.0 °F 72% 30.28 in 10.0 mi West 12.7 mph - N/A   Overcast
10:51 PM 27.0 °F 18.0 °F 18.0 °F 69% 30.28 in 10.0 mi West 9.2 mph - N/A   Overcast
11:51 PM 26.1 °F 14.0 °F 17.1 °F 69% 30.29 in 10.0 mi WNW 15.0 mph - N/A   Overcast